Location: Appeville
(49.3218°N, 1.3427°W)
Time: 03:02:00
(UTC+00:00)

CZ-2C R/B - Pass Details

Date: 08 December 2019
Orbit: 668 x 784 km, 98.1° (Epoch: 28 January)

Event Time Altitude Azimuth Distance (km) Brightness Sun altitude
Rises 05:54:53 0° 3° (N) 3,059 5.5 -17.3°
Reaches altitude 10° 05:57:35 10° 348° (NNW) 2,125 4.5 -16.9°
Enters shadow 05:58:29 14° 339° (NNW) 1,874 4.2 -16.8°
